GW0143 Weather Reports


time (UTC)temp
F
wind
direction
speed
knots
gust
knots
rain 1hr
in
rain 24hr
in
rain mn
in
humidity
%
barometer
mb
20260509205520 68 327 7.8 15.6 0.00 0.00 0.00 15 1016.3
20260509204517 67 354 11.3 19.1 0.00 0.00 0.00 14 1016.4
20260509203517 68 347 9.6 22.6 0.00 0.00 0.00 15 1016.5
20260509202520 67 345 11.3 16.5 0.00 0.00 0.00 14 1016.6
20260509201521 67 348 9.6 15.6 0.00 0.00 0.00 15 1016.6
20260509200518 67 352 11.3 20.9 0.00 0.00 0.00 14 1016.7
20260509195538 68 325 7.8 15.6 0.00 0.00 0.00 18 1016.8
20260509194558 67 358 8.7 19.1 0.00 0.00 0.00 18 1016.9
20260509193538 67 350 10.4 15.6 0.00 0.00 0.00 17 1017.0
20260509192519 66 345 8.7 13.9 0.00 0.00 0.00 17 1017.1
20260509191539 65 317 7.0 11.3 0.00 0.00 0.00 20 1017.2
20260509190518 65 360 4.3 13.0 0.00 0.00 0.00 20 1017.4
20260509185539 65 314 7.0 11.3 0.00 0.00 0.00 21 1017.4
20260509184519 64 335 7.0 10.4 0.00 0.00 0.00 21 1017.5
20260509183520 64 318 4.3 8.7 0.00 0.00 0.00 22 1017.6
20260509182516 62 347 5.2 9.6 0.00 0.00 0.00 24 1017.6
20260509181517 62 13 6.1 9.6 0.00 0.00 0.00 26 1017.8
20260509180520 62 354 4.3 7.8 0.00 0.00 0.00 26 1017.8
20260509175520 62 283 5.2 11.3 0.00 0.00 0.00 26 1017.9
20260509174521 62 24 6.1 10.4 0.00 0.00 0.00 26 1017.9
20260509173517 61 38 5.2 12.2 0.00 0.00 0.00 26 1017.8
20260509172521 61 330 4.3 7.8 0.00 0.00 0.00 25 1018.0
20260509171537 61 38 4.3 10.4 0.00 0.00 0.00 26 1018.1
20260509170538 61 30 6.1 12.2 0.00 0.00 0.00 27 1018.1
20260509165521 61 4 5.2 8.7 0.00 0.00 0.00 27 1018.3
20260509164518 60 39 6.1 10.4 0.00 0.00 0.00 26 1018.3
20260509163521 60 20 5.2 7.8 0.00 0.00 0.00 28 1018.2
20260509162518 60 43 4.3 9.6 0.00 0.00 0.00 28 1018.2
20260509161659 59 18 5.2 10.4 0.00 0.00 0.00 28 1018.1
20260509160522 59 43 3.5 7.0 0.00 0.00 0.00 30 1018.2
20260509155522 58 356 2.6 6.1 0.00 0.00 0.00 32 1018.2
20260509154516 57 22 2.6 5.2 0.00 0.00 0.00 36 1018.4
20260509153516 56 43 2.6 7.0 0.00 0.00 0.00 40 1018.5
20260509152523 55 34 4.3 7.8 0.00 0.00 0.00 42 1018.5
20260509151523 54 5 4.3 6.1 0.00 0.00 0.00 46 1018.5
20260509150523 53 21 3.5 7.0 0.00 0.00 0.00 50 1018.6
20260509145523 52 339 3.5 5.2 0.00 0.00 0.00 51 1018.6
20260509144538 52 354 5.2 7.0 0.00 0.00 0.00 49 1018.6
20260509143517 52 354 5.2 7.0 0.00 0.00 0.00 51 1018.6
20260509142518 53 354 4.3 6.1 0.00 0.00 0.00 45 1018.5
20260509141518 53 20 3.5 6.1 0.00 0.00 0.00 46 1018.4
20260509140521 51 325 0.9 2.6 0.00 0.00 0.00 52 1018.4
20260509135542 49 259 0.9 1.7 0.00 0.00 0.00 53 1018.3
20260509134522 48 164 1.7 2.6 0.00 0.00 0.00 53 1018.2
20260509133522 47 165 1.7 3.5 0.00 0.00 0.00 56 1018.3
20260509132522 45 154 1.7 2.6 0.00 0.00 0.00 59 1018.3
20260509131522 42 159 1.7 2.6 0.00 0.00 0.00 66 1018.2
20260509130522 42 300 0.9 2.6 0.00 0.00 0.00 65 1018.2
20260509125522 41 293 0.9 2.6 0.00 0.00 0.00 67 1018.1
20260509124523 39 155 1.7 3.5 0.00 0.00 0.00 66 1018.0
20260509123521 40 249 2.6 4.3 0.00 0.00 0.00 65 1017.8
20260509122521 39 82 3.5 7.0 0.00 0.00 0.00 66 1017.6
20260509121520 39 98 1.7 6.1 0.00 0.00 0.00 65 1017.5
20260509120523 38 229 1.7 2.6 0.00 0.00 0.00 71 1017.4
20260509115521 38 132 3.5 5.2 0.00 0.00 0.00 67 1017.3
20260509114524 37 197 2.6 4.3 0.00 0.00 0.00 73 1017.3
20260509113521 38 100 2.6 5.2 0.00 0.00 0.00 70 1017.3
20260509112521 37 75 1.7 6.1 0.00 0.00 0.00 75 1017.3
20260509111542 37 146 4.3 6.1 0.00 0.00 0.00 76 1017.2
20260509110521 37 143 3.5 4.3 0.00 0.00 0.00 74 1017.2
20260509105525 38 66 1.7 2.6 0.00 0.00 0.00 72 1017.1
20260509104542 35 80 3.5 5.2 0.00 0.00 0.00 78 1017.2
20260509103522 35 196 4.3 6.1 0.00 0.00 0.00 79 1017.2
20260509102522 35 150 4.3 7.0 0.00 0.00 0.00 78 1017.3
20260509101522 34 136 3.5 5.2 0.00 0.00 0.00 80 1017.2
20260509100522 34 197 4.3 6.1 0.00 0.00 0.00 82 1017.2
20260509095543 36 191 3.5 6.1 0.00 0.00 0.00 79 1017.2
20260509094523 36 181 2.6 5.2 0.00 0.00 0.00 79 1017.3
20260509093546 35 201 2.6 4.3 0.00 0.00 0.00 80 1017.4
20260509092526 36 186 1.7 2.6 0.00 0.00 0.00 81 1017.3
20260509091526 36 132 2.6 3.5 0.00 0.00 0.00 80 1017.3
20260509090527 36 116 1.7 1.7 0.00 0.00 0.00 80 1017.5
20260509085538 37 172 3.5 5.2 0.00 0.00 0.00 78 1017.5
20260509084518 36 145 5.2 7.8 0.00 0.00 0.00 79 1017.3
20260509083527 36 101 2.6 3.5 0.00 0.00 0.00 80 1017.4
20260509082527 35 233 2.6 4.3 0.00 0.00 0.00 82 1017.6
20260509081527 35 127 1.7 2.6 0.00 0.00 0.00 83 1017.7
20260509080527 35 155 2.6 3.5 0.00 0.00 0.00 82 1017.8
20260509075529 36 116 1.7 1.7 0.00 0.00 0.00 80 1017.8
20260509074528 37 99 1.7 2.6 0.00 0.00 0.00 80 1017.9
20260509073528 38 96 1.7 2.6 0.00 0.00 0.00 78 1018.0
20260509072520 39 143 3.5 5.2 0.00 0.00 0.00 74 1018.1
20260509071529 39 130 1.7 2.6 0.00 0.00 0.00 76 1018.1
20260509070520 39 142 3.5 5.2 0.00 0.00 0.00 75 1018.2
20260509065520 40 139 4.3 6.1 0.00 0.00 0.00 74 1018.3
20260509064520 41 132 2.6 5.2 0.00 0.00 0.00 71 1018.4
20260509063520 40 142 4.3 5.2 0.00 0.00 0.00 72 1018.4
20260509062529 40 139 1.7 4.3 0.00 0.00 0.00 75 1018.4
20260509061521 41 155 4.3 7.0 0.00 0.00 0.00 73 1018.5
20260509060521 42 143 3.5 7.0 0.00 0.00 0.00 72 1018.5
20260509055521 43 150 4.3 6.1 0.00 0.00 0.00 69 1018.5
20260509054602 44 159 4.3 6.1 0.00 0.00 0.00 67 1018.5
20260509053601 45 155 3.5 5.2 0.00 0.00 0.00 65 1018.4
20260509052521 47 129 3.5 5.2 0.00 0.00 0.00 61 1018.5
20260509051522 48 153 2.6 4.3 0.00 0.00 0.00 59 1018.4
20260509050551 49 184 0.9 2.6 0.00 0.00 0.00 55 1018.4
20260509045522 49 205 5.2 7.8 0.00 0.00 0.00 54 1018.3
20260509044522 49 170 5.2 8.7 0.00 0.00 0.00 57 1018.2
20260509043520 50 210 7.8 12.2 0.00 0.00 0.00 55 1018.3
20260509042519 50 202 8.7 14.8 0.00 0.00 0.00 52 1018.1
20260509041523 50 216 4.3 8.7 0.00 0.00 0.00 57 1018.2
20260509040600 50 199 7.0 13.0 0.00 0.00 0.00 57 1018.3
20260509035517 50 202 7.8 12.2 0.00 0.00 0.00 56 1018.2
20260509034520 49 199 6.1 10.4 0.00 0.00 0.00 60 1018.3
20260509033517 50 149 3.5 5.2 0.00 0.00 0.00 61 1018.1
20260509032532 50 224 3.5 4.3 0.00 0.00 0.00 59 1018.2
20260509031523 51 197 5.2 7.8 0.00 0.00 0.00 56 1018.0
20260509030518 51 188 3.5 5.2 0.00 0.00 0.00 55 1017.9
20260509025518 52 185 3.5 4.3 0.00 0.00 0.00 55 1017.8
20260509024518 53 203 3.5 6.1 0.00 0.00 0.00 53 1017.7
20260509023519 53 211 6.1 8.7 0.00 0.00 0.00 49 1017.4
20260509022524 53 197 6.1 8.7 0.00 0.00 0.00 53 1017.2
20260509021557 53 196 7.0 10.4 0.00 0.00 0.00 51 1017.0
20260509020520 54 197 6.1 8.7 0.00 0.00 0.00 52 1016.9
20260509015519 55 211 7.0 9.6 0.00 0.00 0.00 47 1016.7
20260509014519 55 185 5.2 7.0 0.00 0.00 0.00 51 1016.6
20260509013518 55 201 7.0 9.6 0.00 0.00 0.00 50 1016.5
20260509012518 56 207 6.1 8.7 0.00 0.00 0.00 48 1016.4
20260509011517 58 178 9.6 13.0 0.00 0.00 0.00 43 1016.2
20260509010517 59 179 9.6 13.0 0.00 0.00 0.00 41 1016.1
20260509005519 60 172 10.4 15.6 0.00 0.00 0.00 41 1016.0
20260509004518 60 171 11.3 16.5 0.00 0.00 0.00 40 1016.0
20260509003517 61 174 12.2 16.5 0.00 0.00 0.00 40 1015.9
20260509002518 61 178 11.3 15.6 0.00 0.00 0.00 39 1015.9
20260509001518 59 183 9.6 13.9 0.00 0.00 0.00 42 1015.8
20260509000518 60 182 9.6 13.9 0.00 0.00 0.00 41 1015.8
20260508235519 60 181 10.4 14.8 0.00 0.00 0.00 40 1015.7
20260508234559 61 184 9.6 13.0 0.00 0.00 0.00 40 1015.7
20260508233519 61 190 11.3 14.8 0.00 0.00 0.00 39 1015.7
20260508232519 62 185 9.6 15.6 0.00 0.00 0.00 36 1015.6
20260508231557 61 192 10.4 16.5 0.00 0.00 0.00 37 1015.6
20260508230516 62 199 7.8 11.3 0.00 0.00 0.00 36 1015.5
20260508225519 66 195 8.7 13.9 0.00 0.00 0.00 34 1015.4
20260508224521 67 253 0.9 4.3 0.00 0.00 0.00 23 1015.4
20260508223601 64 16 2.6 3.5 0.00 0.00 0.00 23 1015.4
20260508222521 64 7 3.5 6.1 0.00 0.00 0.00 24 1015.5
20260508221518 64 0 4.3 7.8 0.00 0.00 0.00 24 1015.6
20260508220517 65 72 3.5 7.8 0.00 0.00 0.00 25 1015.6
20260508215538 64 35 3.5 7.8 0.00 0.00 0.00 24 1015.8
20260508214518 64 33 2.6 7.0 0.00 0.00 0.00 25 1015.9
20260508213518 65 352 4.3 8.7 0.00 0.00 0.00 24 1016.0
20260508212518 64 8 2.6 5.2 0.00 0.00 0.00 24 1016.1
20260508211519 65 120 2.6 6.1 0.00 0.00 0.00 22 1016.2
20260508210559 65 348 5.2 8.7 0.00 0.00 0.00 24 1016.1